Погода в Боровом

Россия / Республика Карелия     64°36′45″N   32°14′10″E
темп.,
°C
ветер,
м/с
пор.,
м/с
влажн.,
%
обл.,
%
осадки,
мм/ч
давл.,
гПа
погр.,
м
12 мая, ср
ср1200:00+14ююз51476100 0.0 1018452
03:00+13юз41382100 0.0 1019383
06:00+13ююз3108520 0.0 1019358
09:00+18юз366522 0.0 1020577
12:00+21ююз46485 0.0 10201183
15:00+23ююз56425 0.0 10191886
18:00+23ююз474280 0.0 10181686
21:00+17ююз3661100 0.0 1018113
13 мая, чт
чт1300:00+13ююз3107145 0.0 1018177
03:00+12ююз311830 0.0 1018220
06:00+14юз39800 0.0 1017256
09:00+19юз46570 0.0 1017470
12:00+23юз46430 0.0 10161797
15:00+25юз46345 0.0 10152614
18:00+25зюз243424 0.0 10132396
21:00+19ю2253100 0.0 101314
14 мая, пт
пт1400:00+16ююз22678 0.0 101311
03:00+14зюз227859 0.1 101215
06:00+15ссз127757 0.3 101172
09:00+19св226019 0.6 1009437
12:00+23вюв45458 0.1 10081929
15:00+20ююв6759100 1.0 10081307
18:00+15зюз1377100 1.9 1010373
21:00+13св228263 3.2 101023
15 мая, сб
сб1500:00+10всв369772 1.0 1011214
03:00+9всв359677 1.1 1011210
06:00+8всв3595100 0.0 1012304
09:00+7всв3593100 0.0 1012331
12:00+7св349084 0.3 1012333
15:00+8всв348594 0.3 1011435
18:00+8св458796 0.1 1010391
21:00+5ссв3693100 0.1 1010322
16 мая, вс
вс1600:00+4ссв3595100 0.0 1009285
03:00+4с3796100 0.0 1008328
06:00+4с4795100 0.0 1008380
09:00+4с3692100 0.0 1009443
12:00+5ссв3589100 0.0 1010501
15:00+5ссв3587100 0.0 1011534
18:00+5ссв3489100 0.0 1012523
21:00+5св2490100 0.1 1013439